Powrót do katalogu

SL-8 DEB

AktywnyLEO
NORAD 5052·DEBRIS·🇷🇺 Russia

Wystrzelony Mar 18, 1971 z Plesetsk Cosmodrome

Loading…

Następne Przeloty

TLE

Source: Space-Track
1 05052U 71020C   26218.88233052 -.00000049  00000-0  33721-4 0  9996
2 05052  65.8221   6.3920 0007410 237.8729 200.5490 13.73651029776173

Śledź SL-8 DEB w czasie rzeczywistym z AllMySat

Download on the App Store